アトラス彗星

C/2019 E3 ( ATLAS )

English version
Home page
Updated on September 27, 2024

---------------------------------------------------------------------

・ プロフィール

発見日 2019年3月5日
発見光度 18.4等
発見者 Asteroid Terrestrial-Impact Last Alert System (ATLAS) search program

・ 写真集

・ 軌道要素

Epoch 2024 Mar. 31.0 TT = JDT 2460400.5
T 2023 Nov. 15.37720 TT                                 Rudenko
q  10.3130120            (2000.0)            P               Q
z  +0.0001528      Peri.  280.70469     +0.15957301     +0.96235497
 +/-0.0000003      Node   347.22551     +0.26392861     -0.25635352
e   0.9984244      Incl.   84.30066     -0.95125083     +0.09030936
>From 750 observations 2013 Apr. 1-2024 Feb. 16, mean residual 0".5.

・ 星図

・ 光度変化

        m1 = 1.5 + 5 logΔ + 10.0 log r

---------------------------------------------------------------------

軌道要素はM.P.E.C. 2024-D126に掲載されたものです。
星図はステラナビゲータ Ver.10 (アストロアーツ) で作成したものです。
光度グラフはComet for Windowsで作成したものです。

---------------------------------------------------------------------

Copyright(C) Seiichi Yoshida (comet@aerith.net). All rights reserved.